Time,TemperatureF,DewpointF,PressureIn,WindDirection,WindDirectionDegrees,WindSpeedMPH,WindSpeedGustMPH,Humidity,HourlyPrecipIn,Conditions,Clouds,dailyrainin,SoftwareType,DateUTC
2014-01-07 00:01:00,17.1,-1.1,27.85,NW,326,0.0,0.0,44,0.00,,,0.00,VWS V15.00,2014-01-07 05:01:00,
2014-01-07 00:02:00,17.1,-1.1,27.85,SW,232,0.0,0.0,44,0.00,,,0.00,VWS V15.00,2014-01-07 05:02:00,
2014-01-07 00:07:00,17.1,-1.1,27.85,WNW,303,0.0,0.0,44,0.00,,,0.00,VWS V15.00,2014-01-07 05:07:00,
2014-01-07 00:12:00,16.9,-1.2,27.85,North,0,0.0,0.0,44,0.00,,,0.00,VWS V15.00,2014-01-07 05:12:00,
2014-01-07 00:17:00,16.9,-1.2,27.85,West,260,0.0,0.0,44,0.00,,,0.00,VWS V15.00,2014-01-07 05:17:00,
2014-01-07 00:22:00,16.5,-1.6,27.85,NNW,338,0.0,0.0,44,0.00,,,0.00,VWS V15.00,2014-01-07 05:22:00,
2014-01-07 00:27:00,16.2,-1.9,27.88,WNW,283,0.0,0.0,44,0.00,,,0.00,VWS V15.00,2014-01-07 05:27:00,
2014-01-07 00:32:00,15.8,-2.2,27.88,WSW,257,0.0,0.0,44,0.00,,,0.00,VWS V15.00,2014-01-07 05:32:00,
2014-01-07 00:37:00,16.0,-2.1,27.88,NE,36,0.0,0.0,44,0.00,,,0.00,VWS V15.00,2014-01-07 05:37:00,
2014-01-07 00:42:00,15.8,-2.2,27.88,West,265,0.0,0.0,44,0.00,,,0.00,VWS V15.00,2014-01-07 05:42:00,
2014-01-07 00:47:00,15.4,-2.6,27.88,North,353,0.0,0.0,44,0.00,,,0.00,VWS V15.00,2014-01-07 05:47:00,
2014-01-07 00:52:00,15.3,-2.7,27.88,West,262,0.0,0.0,44,0.00,,,0.00,VWS V15.00,2014-01-07 05:52:00,
2014-01-07 00:56:00,15.4,-2.6,27.88,WNW,284,0.0,0.0,44,0.00,,,0.00,VWS V15.00,2014-01-07 05:56:00,
2014-01-07 01:01:00,15.3,-2.7,27.88,WNW,301,0.0,0.0,44,0.00,,,0.00,VWS V15.00,2014-01-07 06:01:00,
2014-01-07 01:06:00,15.3,-2.7,27.88,WSW,243,0.0,0.0,44,0.00,,,0.00,VWS V15.00,2014-01-07 06:06:00,
2014-01-07 01:11:00,15.1,-2.9,27.88,West,273,0.0,0.0,44,0.00,,,0.00,VWS V15.00,2014-01-07 06:11:00,
2014-01-07 01:16:00,15.1,-2.9,27.88,West,273,0.0,0.0,44,0.00,,,0.00,VWS V15.00,2014-01-07 06:16:00,
2014-01-07 01:21:00,14.7,-3.2,27.88,West,277,0.0,0.0,44,0.00,,,0.00,VWS V15.00,2014-01-07 06:21:00,
2014-01-07 01:26:00,14.5,-3.4,27.88,NW,305,0.0,0.0,44,0.00,,,0.00,VWS V15.00,2014-01-07 06:26:00,
2014-01-07 01:31:00,14.5,-3.4,27.91,NW,312,0.0,0.0,44,0.00,,,0.00,VWS V15.00,2014-01-07 06:31:00,
2014-01-07 01:36:00,14.5,-3.4,27.91,WSW,256,0.0,0.0,44,0.00,,,0.00,VWS V15.00,2014-01-07 06:36:00,
2014-01-07 01:41:00,14.4,-3.6,27.91,WNW,299,0.0,0.0,44,0.00,,,0.00,VWS V15.00,2014-01-07 06:41:00,
2014-01-07 01:46:00,13.8,-3.6,27.91,WSW,237,0.0,0.0,45,0.00,,,0.00,VWS V15.00,2014-01-07 06:46:00,
2014-01-07 01:51:00,13.6,-3.8,27.91,West,273,0.0,0.0,45,0.00,,,0.00,VWS V15.00,2014-01-07 06:51:00,
2014-01-07 01:56:00,13.6,-3.8,27.91,NW,318,0.0,0.0,45,0.00,,,0.00,VWS V15.00,2014-01-07 06:56:00,
2014-01-07 02:01:00,13.6,-3.8,27.91,West,268,0.0,0.0,45,0.00,,,0.00,VWS V15.00,2014-01-07 07:01:00,
2014-01-07 02:06:00,13.6,-3.8,27.91,SW,230,0.0,0.0,45,0.00,,,0.00,VWS V15.00,2014-01-07 07:06:00,
2014-01-07 02:11:00,13.5,-3.9,27.91,West,279,0.0,0.0,45,0.00,,,0.00,VWS V15.00,2014-01-07 07:11:00,
2014-01-07 02:15:00,13.5,-3.9,27.91,WSW,253,0.0,0.0,45,0.00,,,0.00,VWS V15.00,2014-01-07 07:15:00,
2014-01-07 02:20:00,13.3,-4.1,27.91,West,274,0.0,0.0,45,0.00,,,0.00,VWS V15.00,2014-01-07 07:20:00,
2014-01-07 02:25:00,13.3,-4.1,27.91,West,274,0.0,0.0,45,0.00,,,0.00,VWS V15.00,2014-01-07 07:25:00,
2014-01-07 02:30:00,13.3,-4.1,27.94,West,274,0.0,0.0,45,0.00,,,0.00,VWS V15.00,2014-01-07 07:30:00,
2014-01-07 02:35:00,12.9,-4.4,27.94,West,273,0.0,0.0,45,0.00,,,0.00,VWS V15.00,2014-01-07 07:35:00,
2014-01-07 02:36:00,12.9,-4.4,27.94,West,273,0.0,0.0,45,0.00,,,0.00,VWS V15.00,2014-01-07 07:36:00,
2014-01-07 02:41:00,12.7,-4.6,27.94,WNW,297,0.0,0.0,45,0.00,,,0.00,VWS V15.00,2014-01-07 07:41:00,
2014-01-07 02:46:00,12.7,-4.6,27.94,NW,315,0.0,0.0,45,0.00,,,0.00,VWS V15.00,2014-01-07 07:46:00,
2014-01-07 02:51:00,12.6,-4.7,27.94,WNW,286,0.0,0.0,45,0.00,,,0.00,VWS V15.00,2014-01-07 07:51:00,
2014-01-07 02:56:00,12.6,-4.7,27.94,WNW,286,0.0,0.0,45,0.00,,,0.00,VWS V15.00,2014-01-07 07:56:00,
2014-01-07 03:01:00,12.4,-4.9,27.94,WNW,290,0.0,0.0,45,0.00,,,0.00,VWS V15.00,2014-01-07 08:01:00,
2014-01-07 03:06:00,12.4,-4.9,27.94,SW,233,0.0,0.0,45,0.00,,,0.00,VWS V15.00,2014-01-07 08:06:00,
2014-01-07 03:11:00,12.6,-4.7,27.94,WSW,255,0.0,0.0,45,0.00,,,0.00,VWS V15.00,2014-01-07 08:11:00,
2014-01-07 03:16:00,12.6,-4.7,27.96,WSW,251,0.0,0.0,45,0.00,,,0.00,VWS V15.00,2014-01-07 08:16:00,
2014-01-07 03:21:00,12.2,-5.1,27.96,WNW,295,0.0,0.0,45,0.00,,,0.00,VWS V15.00,2014-01-07 08:21:00,
2014-01-07 03:26:00,12.2,-5.1,27.96,West,279,0.0,0.0,45,0.00,,,0.00,VWS V15.00,2014-01-07 08:26:00,
2014-01-07 03:31:00,12.2,-5.1,27.96,West,279,0.0,0.0,45,0.00,,,0.00,VWS V15.00,2014-01-07 08:31:00,
2014-01-07 03:36:00,12.0,-5.2,27.96,West,279,0.0,0.0,45,0.00,,,0.00,VWS V15.00,2014-01-07 08:36:00,
2014-01-07 03:41:00,12.0,-5.2,27.96,SW,230,0.0,0.0,45,0.00,,,0.00,VWS V15.00,2014-01-07 08:41:00,
2014-01-07 03:46:00,12.0,-5.2,27.99,SW,230,0.0,0.0,45,0.00,,,0.00,VWS V15.00,2014-01-07 08:46:00,
2014-01-07 03:51:00,12.0,-5.2,27.99,NW,305,0.0,0.0,45,0.00,,,0.00,VWS V15.00,2014-01-07 08:51:00,
2014-01-07 03:56:00,12.0,-5.2,27.99,WSW,258,0.0,0.0,45,0.00,,,0.00,VWS V15.00,2014-01-07 08:56:00,
2014-01-07 04:01:00,11.7,-5.6,27.99,WSW,258,0.0,0.0,45,0.00,,,0.00,VWS V15.00,2014-01-07 09:01:00,
2014-01-07 04:06:00,11.7,-5.6,27.99,WSW,250,0.0,0.0,45,0.00,,,0.00,VWS V15.00,2014-01-07 09:06:00,
2014-01-07 04:10:00,11.8,-5.4,27.99,West,261,0.0,0.0,45,0.00,,,0.00,VWS V15.00,2014-01-07 09:10:00,
2014-01-07 04:15:00,11.8,-5.4,27.99,West,266,0.0,0.0,45,0.00,,,0.00,VWS V15.00,2014-01-07 09:15:00,
2014-01-07 04:20:00,11.3,-5.9,27.99,West,267,0.0,0.0,45,0.00,,,0.00,VWS V15.00,2014-01-07 09:20:00,
2014-01-07 04:25:00,11.3,-5.9,27.99,West,270,0.0,0.0,45,0.00,,,0.00,VWS V15.00,2014-01-07 09:25:00,
2014-01-07 04:30:00,11.3,-5.9,27.99,NNW,331,0.0,0.0,45,0.00,,,0.00,VWS V15.00,2014-01-07 09:30:00,
2014-01-07 04:35:00,11.1,-6.1,27.99,WSW,249,0.0,0.0,45,0.00,,,0.00,VWS V15.00,2014-01-07 09:35:00,
2014-01-07 04:40:00,11.1,-6.1,27.99,West,279,0.0,0.0,45,0.00,,,0.00,VWS V15.00,2014-01-07 09:40:00,
2014-01-07 04:45:00,11.1,-6.1,27.99,WNW,296,0.0,0.0,45,0.00,,,0.00,VWS V15.00,2014-01-07 09:45:00,
2014-01-07 04:50:00,11.1,-6.1,27.99,WSW,252,0.0,0.0,45,0.00,,,0.00,VWS V15.00,2014-01-07 09:50:00,
2014-01-07 04:55:00,10.8,-6.4,27.99,WSW,252,0.0,0.0,45,0.00,,,0.00,VWS V15.00,2014-01-07 09:55:00,
2014-01-07 05:01:00,10.6,-6.6,28.02,WSW,248,0.0,0.0,45,0.00,,,0.00,VWS V15.00,2014-01-07 10:01:00,
2014-01-07 05:06:00,10.6,-6.6,28.02,WSW,248,0.0,0.0,45,0.00,,,0.00,VWS V15.00,2014-01-07 10:06:00,
2014-01-07 05:11:00,10.8,-6.4,28.02,WNW,282,0.0,0.0,45,0.00,,,0.00,VWS V15.00,2014-01-07 10:11:00,
2014-01-07 05:16:00,10.8,-6.4,28.02,WNW,282,0.0,0.0,45,0.00,,,0.00,VWS V15.00,2014-01-07 10:16:00,
2014-01-07 05:21:00,10.8,-6.4,28.02,WNW,295,0.0,0.0,45,0.00,,,0.00,VWS V15.00,2014-01-07 10:21:00,
2014-01-07 05:26:00,10.8,-6.4,28.02,WNW,284,0.0,0.0,45,0.00,,,0.00,VWS V15.00,2014-01-07 10:26:00,
2014-01-07 05:31:00,10.8,-6.4,28.02,WNW,284,0.0,0.0,45,0.00,,,0.00,VWS V15.00,2014-01-07 10:31:00,
2014-01-07 05:36:00,10.4,-6.7,28.02,WSW,252,0.0,0.0,45,0.00,,,0.00,VWS V15.00,2014-01-07 10:36:00,
2014-01-07 05:41:00,10.2,-6.9,28.02,WSW,257,0.0,0.0,45,0.00,,,0.00,VWS V15.00,2014-01-07 10:41:00,
2014-01-07 05:46:00,10.2,-6.9,28.02,WSW,257,0.0,0.0,45,0.00,,,0.00,VWS V15.00,2014-01-07 10:46:00,
2014-01-07 05:51:00,10.2,-6.9,28.02,West,267,0.0,0.0,45,0.00,,,0.00,VWS V15.00,2014-01-07 10:51:00,
2014-01-07 05:56:00,10.2,-6.9,28.02,NW,316,0.0,0.0,45,0.00,,,0.00,VWS V15.00,2014-01-07 10:56:00,
2014-01-07 06:01:00,10.0,-7.1,28.05,WNW,293,0.0,0.0,45,0.00,,,0.00,VWS V15.00,2014-01-07 11:01:00,
2014-01-07 06:06:00,10.0,-7.1,28.05,WSW,256,0.0,0.0,45,0.00,,,0.00,VWS V15.00,2014-01-07 11:06:00,
2014-01-07 06:11:00,9.7,-7.4,28.05,SW,233,0.0,0.0,45,0.00,,,0.00,VWS V15.00,2014-01-07 11:11:00,
2014-01-07 06:16:00,9.7,-7.4,28.05,NW,305,0.0,0.0,45,0.00,,,0.00,VWS V15.00,2014-01-07 11:16:00,
2014-01-07 06:21:00,9.7,-7.4,28.05,WSW,251,0.0,0.0,45,0.00,,,0.00,VWS V15.00,2014-01-07 11:21:00,
2014-01-07 06:26:00,9.5,-7.6,28.05,SW,220,0.0,0.0,45,0.00,,,0.00,VWS V15.00,2014-01-07 11:26:00,
2014-01-07 06:31:00,9.5,-7.6,28.05,WSW,256,0.0,0.0,45,0.00,,,0.00,VWS V15.00,2014-01-07 11:31:00,
2014-01-07 06:36:00,9.5,-7.6,28.05,West,278,0.0,0.0,45,0.00,,,0.00,VWS V15.00,2014-01-07 11:36:00,
2014-01-07 06:41:00,9.5,-7.6,28.05,West,262,0.0,0.0,45,0.00,,,0.00,VWS V15.00,2014-01-07 11:41:00,
2014-01-07 06:46:00,9.3,-7.7,28.05,SW,216,0.0,0.0,45,0.00,,,0.00,VWS V15.00,2014-01-07 11:46:00,
2014-01-07 06:51:00,9.3,-7.7,28.05,WSW,244,0.0,0.0,45,0.00,,,0.00,VWS V15.00,2014-01-07 11:51:00,
2014-01-07 06:56:00,9.3,-7.7,28.05,WSW,258,0.0,0.0,45,0.00,,,0.00,VWS V15.00,2014-01-07 11:56:00,
2014-01-07 07:01:00,9.0,-8.1,28.05,WNW,294,0.0,0.0,45,0.00,,,0.00,VWS V15.00,2014-01-07 12:01:00,
2014-01-07 07:06:00,8.8,-8.2,28.05,WNW,292,0.0,0.0,45,0.00,,,0.00,VWS V15.00,2014-01-07 12:06:00,
2014-01-07 07:11:00,8.8,-8.2,28.05,WSW,245,0.0,0.0,45,0.00,,,0.00,VWS V15.00,2014-01-07 12:11:00,
2014-01-07 07:16:00,8.8,-8.2,28.05,West,268,0.0,0.0,45,0.00,,,0.00,VWS V15.00,2014-01-07 12:16:00,
2014-01-07 07:21:00,8.8,-8.2,28.05,West,271,0.0,0.0,45,0.00,,,0.00,VWS V15.00,2014-01-07 12:21:00,
2014-01-07 07:26:00,8.8,-8.2,28.05,West,281,0.0,0.0,45,0.00,,,0.00,VWS V15.00,2014-01-07 12:26:00,
2014-01-07 07:31:00,8.8,-8.2,28.08,WSW,246,0.0,0.0,45,0.00,,,0.00,VWS V15.00,2014-01-07 12:31:00,
2014-01-07 07:36:00,8.8,-8.2,28.08,West,274,0.0,0.0,45,0.00,,,0.00,VWS V15.00,2014-01-07 12:36:00,
2014-01-07 07:41:00,8.8,-8.2,28.08,SW,233,0.0,0.0,45,0.00,,,0.00,VWS V15.00,2014-01-07 12:41:00,
2014-01-07 07:46:00,8.8,-8.2,28.08,WSW,252,0.0,0.0,45,0.00,,,0.00,VWS V15.00,2014-01-07 12:46:00,
2014-01-07 07:51:00,8.8,-8.2,28.08,SW,235,0.0,0.0,45,0.00,,,0.00,VWS V15.00,2014-01-07 12:51:00,
2014-01-07 07:56:00,8.8,-8.2,28.08,NW,323,0.0,0.0,45,0.00,,,0.00,VWS V15.00,2014-01-07 12:56:00,
2014-01-07 08:01:00,8.6,-8.4,28.05,West,279,0.0,0.0,45,0.00,,,0.00,VWS V15.00,2014-01-07 13:01:00,
2014-01-07 08:06:00,8.8,-8.2,28.05,NNW,333,0.0,0.0,45,0.00,,,0.00,VWS V15.00,2014-01-07 13:06:00,
2014-01-07 08:11:00,9.0,-8.1,28.05,NW,311,0.0,0.0,45,0.00,,,0.00,VWS V15.00,2014-01-07 13:11:00,
2014-01-07 08:16:00,9.0,-8.1,28.05,NW,311,0.0,0.0,45,0.00,,,0.00,VWS V15.00,2014-01-07 13:16:00,
2014-01-07 08:21:00,9.1,-7.9,28.05,West,275,0.0,0.0,45,0.00,,,0.00,VWS V15.00,2014-01-07 13:21:00,
2014-01-07 08:26:00,9.5,-7.6,28.05,West,274,0.0,0.0,45,0.00,,,0.00,VWS V15.00,2014-01-07 13:26:00,
2014-01-07 08:31:00,9.5,-7.6,28.05,SW,221,0.0,0.0,45,0.00,,,0.00,VWS V15.00,2014-01-07 13:31:00,
2014-01-07 08:36:00,10.0,-7.1,28.08,West,259,0.0,0.0,45,0.00,,,0.00,VWS V15.00,2014-01-07 13:36:00,
2014-01-07 08:41:00,10.0,-7.1,28.08,SW,221,0.0,0.0,45,0.00,,,0.00,VWS V15.00,2014-01-07 13:41:00,
2014-01-07 08:46:00,10.4,-6.7,28.08,NW,304,0.0,0.0,45,0.00,,,0.00,VWS V15.00,2014-01-07 13:46:00,
2014-01-07 08:51:00,10.4,-6.7,28.08,West,270,0.0,0.0,45,0.00,,,0.00,VWS V15.00,2014-01-07 13:51:00,
2014-01-07 08:56:00,10.4,-6.7,28.08,NNW,338,0.0,0.0,45,0.00,,,0.00,VWS V15.00,2014-01-07 13:56:00,
2014-01-07 09:01:00,10.4,-6.7,28.11,WNW,289,0.0,0.0,45,0.00,,,0.00,VWS V15.00,2014-01-07 14:01:00,
2014-01-07 09:06:00,10.6,-6.6,28.11,West,281,0.0,0.0,45,0.00,,,0.00,VWS V15.00,2014-01-07 14:06:00,
2014-01-07 09:11:00,10.9,-6.2,28.11,WSW,239,0.0,0.0,45,0.00,,,0.00,VWS V15.00,2014-01-07 14:11:00,
2014-01-07 09:16:00,11.1,-6.1,28.14,WNW,299,0.0,0.0,45,0.00,,,0.00,VWS V15.00,2014-01-07 14:16:00,
2014-01-07 09:21:00,11.5,-5.7,28.14,WSW,241,0.0,0.0,45,0.00,,,0.00,VWS V15.00,2014-01-07 14:21:00,
2014-01-07 09:26:00,11.7,-5.6,28.14,NW,308,0.0,0.0,45,0.00,,,0.00,VWS V15.00,2014-01-07 14:26:00,
2014-01-07 09:31:00,11.8,-5.4,28.14,NNW,344,0.0,0.0,45,0.00,,,0.00,VWS V15.00,2014-01-07 14:31:00,
2014-01-07 09:36:00,11.8,-5.4,28.14,WSW,250,0.0,0.0,45,0.00,,,0.00,VWS V15.00,2014-01-07 14:36:00,
2014-01-07 09:41:00,12.0,-5.2,28.14,West,269,0.0,0.0,45,0.00,,,0.00,VWS V15.00,2014-01-07 14:41:00,
2014-01-07 09:46:00,12.0,-5.2,28.14,WSW,241,0.0,0.0,45,0.00,,,0.00,VWS V15.00,2014-01-07 14:46:00,
2014-01-07 09:51:00,12.6,-4.7,28.14,NW,306,0.0,0.0,45,0.00,,,0.00,VWS V15.00,2014-01-07 14:51:00,
2014-01-07 09:56:00,12.6,-4.7,28.14,WSW,243,0.0,0.0,45,0.00,,,0.00,VWS V15.00,2014-01-07 14:56:00,
2014-01-07 10:01:00,12.9,-4.4,28.14,WSW,243,0.0,0.0,45,0.00,,,0.00,VWS V15.00,2014-01-07 15:01:00,
2014-01-07 10:06:00,12.9,-4.4,28.14,NW,310,0.0,0.0,45,0.00,,,0.00,VWS V15.00,2014-01-07 15:06:00,
2014-01-07 10:11:00,12.9,-4.4,28.14,West,260,0.0,0.0,45,0.00,,,0.00,VWS V15.00,2014-01-07 15:11:00,
2014-01-07 10:16:00,13.5,-3.9,28.14,SW,234,0.0,0.0,45,0.00,,,0.00,VWS V15.00,2014-01-07 15:16:00,
2014-01-07 10:21:00,13.5,-3.9,28.14,SW,232,0.0,0.0,45,0.00,,,0.00,VWS V15.00,2014-01-07 15:21:00,
2014-01-07 10:26:00,13.8,-3.6,28.14,SW,234,0.0,0.0,45,0.00,,,0.00,VWS V15.00,2014-01-07 15:26:00,
2014-01-07 10:31:00,14.0,-3.4,28.14,SW,219,0.0,0.0,45,0.00,,,0.00,VWS V15.00,2014-01-07 15:31:00,
2014-01-07 10:36:00,14.0,-3.4,28.14,SW,229,0.0,0.0,45,0.00,,,0.00,VWS V15.00,2014-01-07 15:36:00,
2014-01-07 10:41:00,14.5,-3.4,28.14,WSW,258,0.0,0.0,44,0.00,,,0.00,VWS V15.00,2014-01-07 15:41:00,
2014-01-07 10:46:00,14.7,-3.2,28.14,NNW,328,0.0,0.0,44,0.00,,,0.00,VWS V15.00,2014-01-07 15:46:00,
2014-01-07 10:51:00,14.9,-3.1,28.14,West,279,0.0,0.0,44,0.00,,,0.00,VWS V15.00,2014-01-07 15:51:00,
2014-01-07 10:56:00,15.1,-2.9,28.14,WSW,242,0.0,0.0,44,0.00,,,0.00,VWS V15.00,2014-01-07 15:56:00,
2014-01-07 11:01:00,15.1,-2.9,28.14,WSW,247,0.0,0.0,44,0.00,,,0.00,VWS V15.00,2014-01-07 16:01:00,
2014-01-07 11:06:00,15.3,-2.7,28.14,East,81,0.0,0.0,44,0.00,,,0.00,VWS V15.00,2014-01-07 16:06:00,
2014-01-07 11:11:00,15.6,-2.4,28.14,West,265,0.0,0.0,44,0.00,,,0.00,VWS V15.00,2014-01-07 16:11:00,
2014-01-07 11:16:00,16.0,-2.1,28.11,NW,315,0.0,0.0,44,0.00,,,0.00,VWS V15.00,2014-01-07 16:16:00,
2014-01-07 11:21:00,16.0,-2.1,28.11,NNW,327,0.0,0.0,44,0.00,,,0.00,VWS V15.00,2014-01-07 16:21:00,
2014-01-07 11:26:00,16.3,-1.7,28.11,WSW,240,0.0,0.0,44,0.00,,,0.00,VWS V15.00,2014-01-07 16:26:00,
2014-01-07 11:30:00,16.5,-1.6,28.11,WSW,255,0.0,0.0,44,0.00,,,0.00,VWS V15.00,2014-01-07 16:30:00,
2014-01-07 11:35:00,16.7,-1.4,28.11,NW,321,0.0,0.0,44,0.00,,,0.00,VWS V15.00,2014-01-07 16:35:00,
2014-01-07 11:40:00,16.7,-1.4,28.11,North,2,0.0,0.0,44,0.00,,,0.00,VWS V15.00,2014-01-07 16:40:00,
2014-01-07 11:45:00,16.7,-1.4,28.11,NW,321,0.0,0.0,44,0.00,,,0.00,VWS V15.00,2014-01-07 16:45:00,
2014-01-07 11:50:00,17.1,-1.1,28.11,NNW,338,0.0,0.0,44,0.00,,,0.00,VWS V15.00,2014-01-07 16:50:00,
2014-01-07 11:55:00,17.1,-1.1,28.11,WSW,248,0.0,0.0,44,0.00,,,0.00,VWS V15.00,2014-01-07 16:55:00,
2014-01-07 12:00:00,17.4,-0.8,28.11,NNW,335,0.0,0.0,44,0.00,,,0.00,VWS V15.00,2014-01-07 17:00:00,
2014-01-07 12:05:00,17.4,-0.8,28.08,North,8,0.0,0.0,44,0.00,,,0.00,VWS V15.00,2014-01-07 17:05:00,
2014-01-07 12:10:00,17.4,-0.8,28.08,NW,312,0.0,0.0,44,0.00,,,0.00,VWS V15.00,2014-01-07 17:10:00,
2014-01-07 12:15:00,17.8,-0.9,28.08,North,6,0.0,0.0,43,0.00,,,0.00,VWS V15.00,2014-01-07 17:15:00,
2014-01-07 12:20:00,18.3,-0.4,28.08,South,190,0.0,0.0,43,0.00,,,0.00,VWS V15.00,2014-01-07 17:20:00,
2014-01-07 12:25:00,18.5,-0.3,28.08,NNW,333,0.0,0.0,43,0.00,,,0.00,VWS V15.00,2014-01-07 17:25:00,
2014-01-07 12:30:00,18.5,-0.3,28.08,WNW,283,0.0,0.0,43,0.00,,,0.00,VWS V15.00,2014-01-07 17:30:00,
2014-01-07 12:35:00,18.7,-0.1,28.08,West,274,0.0,0.0,43,0.00,,,0.00,VWS V15.00,2014-01-07 17:35:00,
2014-01-07 12:40:00,19.0,0.2,28.08,WSW,237,0.0,0.0,43,0.00,,,0.00,VWS V15.00,2014-01-07 17:40:00,
2014-01-07 12:45:00,19.0,0.2,28.05,SW,221,0.0,0.0,43,0.00,,,0.00,VWS V15.00,2014-01-07 17:45:00,
2014-01-07 12:50:00,19.6,0.7,28.05,WSW,248,0.0,0.0,43,0.00,,,0.00,VWS V15.00,2014-01-07 17:50:00,
2014-01-07 12:55:00,19.6,0.7,28.05,WSW,245,0.0,0.0,43,0.00,,,0.00,VWS V15.00,2014-01-07 17:55:00,
2014-01-07 13:00:00,19.6,0.7,28.05,NW,326,0.0,0.0,43,0.00,,,0.00,VWS V15.00,2014-01-07 18:00:00,
2014-01-07 13:05:00,19.4,0.6,28.05,North,1,0.0,0.0,43,0.00,,,0.00,VWS V15.00,2014-01-07 18:05:00,
2014-01-07 13:10:00,19.6,0.7,28.05,WSW,246,0.0,0.0,43,0.00,,,0.00,VWS V15.00,2014-01-07 18:10:00,
2014-01-07 13:15:00,20.1,1.2,28.05,WSW,238,0.0,0.0,43,0.00,,,0.00,VWS V15.00,2014-01-07 18:15:00,
2014-01-07 13:20:00,20.3,1.4,28.05,SW,226,0.0,0.0,43,0.00,,,0.00,VWS V15.00,2014-01-07 18:20:00,
2014-01-07 13:25:00,20.7,1.7,28.05,SW,223,0.0,0.0,43,0.00,,,0.00,VWS V15.00,2014-01-07 18:25:00,
2014-01-07 13:31:00,20.7,1.7,28.05,WSW,250,0.0,0.0,43,0.00,,,0.00,VWS V15.00,2014-01-07 18:31:00,
2014-01-07 13:36:00,20.7,1.7,28.05,West,271,0.0,0.0,43,0.00,,,0.00,VWS V15.00,2014-01-07 18:36:00,
2014-01-07 13:41:00,20.8,1.9,28.05,WSW,248,0.0,0.0,43,0.00,,,0.00,VWS V15.00,2014-01-07 18:41:00,
2014-01-07 13:46:00,21.0,2.0,28.05,WSW,237,0.0,0.0,43,0.00,,,0.00,VWS V15.00,2014-01-07 18:46:00,
2014-01-07 13:51:00,21.0,2.0,28.05,WSW,250,0.0,0.0,43,0.00,,,0.00,VWS V15.00,2014-01-07 18:51:00,
2014-01-07 13:56:00,21.4,2.4,28.05,West,263,0.0,0.0,43,0.00,,,0.00,VWS V15.00,2014-01-07 18:56:00,
2014-01-07 14:01:00,21.6,2.5,28.05,SW,220,0.0,0.0,43,0.00,,,0.00,VWS V15.00,2014-01-07 19:01:00,
2014-01-07 14:06:00,21.9,2.9,28.05,NNW,343,0.0,0.0,43,0.00,,,0.00,VWS V15.00,2014-01-07 19:06:00,
2014-01-07 14:11:00,21.7,2.7,28.05,WSW,243,0.0,0.0,43,0.00,,,0.00,VWS V15.00,2014-01-07 19:11:00,
2014-01-07 14:15:00,21.7,2.7,28.05,WSW,247,0.0,0.0,43,0.00,,,0.00,VWS V15.00,2014-01-07 19:15:00,
2014-01-07 14:20:00,22.1,3.0,28.05,West,273,0.0,0.0,43,0.00,,,0.00,VWS V15.00,2014-01-07 19:20:00,
2014-01-07 14:25:00,22.1,3.0,28.05,WSW,254,0.0,0.0,43,0.00,,,0.00,VWS V15.00,2014-01-07 19:25:00,
2014-01-07 14:30:00,21.9,2.9,28.05,North,4,0.0,0.0,43,0.00,,,0.00,VWS V15.00,2014-01-07 19:30:00,
2014-01-07 14:35:00,21.7,2.7,28.05,NNW,329,0.0,0.0,43,0.00,,,0.00,VWS V15.00,2014-01-07 19:35:00,
2014-01-07 14:40:00,22.1,3.0,28.05,WSW,246,0.0,0.0,43,0.00,,,0.00,VWS V15.00,2014-01-07 19:40:00,
2014-01-07 14:45:00,22.1,3.0,28.05,WNW,298,0.0,0.0,43,0.00,,,0.00,VWS V15.00,2014-01-07 19:45:00,
2014-01-07 14:50:00,22.3,3.2,28.05,WNW,290,0.0,0.0,43,0.00,,,0.00,VWS V15.00,2014-01-07 19:50:00,
2014-01-07 14:55:00,22.3,3.2,28.05,WSW,245,0.0,0.0,43,0.00,,,0.00,VWS V15.00,2014-01-07 19:55:00,
2014-01-07 15:00:00,22.3,3.2,28.05,WSW,248,0.0,0.0,43,0.00,,,0.00,VWS V15.00,2014-01-07 20:00:00,
2014-01-07 15:05:00,22.3,3.2,28.05,WNW,290,0.0,0.0,43,0.00,,,0.00,VWS V15.00,2014-01-07 20:05:00,
2014-01-07 15:10:00,22.3,3.2,28.05,South,191,0.0,0.0,43,0.00,,,0.00,VWS V15.00,2014-01-07 20:10:00,
2014-01-07 15:15:00,22.5,3.4,28.05,South,191,0.0,0.0,43,0.00,,,0.00,VWS V15.00,2014-01-07 20:15:00,
2014-01-07 15:20:00,22.5,3.4,28.05,WSW,246,0.0,0.0,43,0.00,,,0.00,VWS V15.00,2014-01-07 20:20:00,
2014-01-07 15:25:00,22.5,3.4,28.05,West,277,0.0,0.0,43,0.00,,,0.00,VWS V15.00,2014-01-07 20:25:00,
2014-01-07 15:30:00,22.8,3.7,28.05,SW,232,0.0,0.0,43,0.00,,,0.00,VWS V15.00,2014-01-07 20:30:00,
2014-01-07 15:35:00,22.8,3.7,28.05,WSW,238,0.0,0.0,43,0.00,,,0.00,VWS V15.00,2014-01-07 20:35:00,
2014-01-07 15:40:00,22.5,3.4,28.05,North,357,0.0,0.0,43,0.00,,,0.00,VWS V15.00,2014-01-07 20:40:00,
2014-01-07 15:45:00,22.5,3.4,28.08,NNW,331,0.0,0.0,43,0.00,,,0.00,VWS V15.00,2014-01-07 20:45:00,
2014-01-07 15:50:00,22.5,3.4,28.08,West,273,0.0,0.0,43,0.00,,,0.00,VWS V15.00,2014-01-07 20:50:00,
2014-01-07 15:55:00,22.5,3.4,28.08,SW,233,0.0,0.0,43,0.00,,,0.00,VWS V15.00,2014-01-07 20:55:00,
2014-01-07 16:00:00,22.5,3.4,28.08,SW,220,0.0,0.0,43,0.00,,,0.00,VWS V15.00,2014-01-07 21:00:00,
2014-01-07 16:05:00,22.6,3.5,28.08,WSW,253,0.0,0.0,43,0.00,,,0.00,VWS V15.00,2014-01-07 21:05:00,
2014-01-07 16:10:00,22.5,3.4,28.08,West,277,0.0,0.0,43,0.00,,,0.00,VWS V15.00,2014-01-07 21:10:00,
2014-01-07 16:15:00,22.5,3.4,28.08,WNW,283,0.0,0.0,43,0.00,,,0.00,VWS V15.00,2014-01-07 21:15:00,
2014-01-07 16:20:00,22.5,3.4,28.08,WNW,283,0.0,0.0,43,0.00,,,0.00,VWS V15.00,2014-01-07 21:20:00,
2014-01-07 16:25:00,22.5,3.4,28.08,WSW,248,0.0,0.0,43,0.00,,,0.00,VWS V15.00,2014-01-07 21:25:00,
2014-01-07 16:30:00,22.5,3.4,28.05,WSW,247,0.0,0.0,43,0.00,,,0.00,VWS V15.00,2014-01-07 21:30:00,
2014-01-07 16:35:00,22.5,3.4,28.05,WNW,288,0.0,0.0,43,0.00,,,0.00,VWS V15.00,2014-01-07 21:35:00,
2014-01-07 16:40:00,22.5,3.4,28.05,SSW,209,0.0,0.0,43,0.00,,,0.00,VWS V15.00,2014-01-07 21:40:00,
2014-01-07 16:45:00,22.5,3.4,28.08,SSW,210,0.0,0.0,43,0.00,,,0.00,VWS V15.00,2014-01-07 21:45:00,
2014-01-07 16:50:00,22.5,3.4,28.08,SW,234,0.0,0.0,43,0.00,,,0.00,VWS V15.00,2014-01-07 21:50:00,
2014-01-07 16:55:00,22.3,3.2,28.08,SW,226,0.0,0.0,43,0.00,,,0.00,VWS V15.00,2014-01-07 21:55:00,
2014-01-07 17:00:00,22.1,3.0,28.08,SSW,210,0.0,0.0,43,0.00,,,0.00,VWS V15.00,2014-01-07 22:00:00,
2014-01-07 17:05:00,22.1,3.0,28.08,WSW,254,0.0,0.0,43,0.00,,,0.00,VWS V15.00,2014-01-07 22:05:00,
2014-01-07 17:10:00,22.1,3.0,28.08,WSW,252,0.0,0.0,43,0.00,,,0.00,VWS V15.00,2014-01-07 22:10:00,
2014-01-07 17:15:00,22.1,3.0,28.08,West,261,0.0,0.0,43,0.00,,,0.00,VWS V15.00,2014-01-07 22:15:00,
2014-01-07 17:20:00,21.9,2.9,28.08,SW,233,0.0,0.0,43,0.00,,,0.00,VWS V15.00,2014-01-07 22:20:00,
2014-01-07 17:25:00,21.6,2.5,28.08,NNW,340,0.0,0.0,43,0.00,,,0.00,VWS V15.00,2014-01-07 22:25:00,
2014-01-07 17:30:00,21.6,2.5,28.11,SW,233,0.0,0.0,43,0.00,,,0.00,VWS V15.00,2014-01-07 22:30:00,
2014-01-07 17:35:00,21.6,2.5,28.11,SW,232,0.0,0.0,43,0.00,,,0.00,VWS V15.00,2014-01-07 22:35:00,
2014-01-07 17:40:00,21.6,2.5,28.11,SW,232,0.0,0.0,43,0.00,,,0.00,VWS V15.00,2014-01-07 22:40:00,
2014-01-07 17:45:00,21.2,2.2,28.08,SW,233,0.0,0.0,43,0.00,,,0.00,VWS V15.00,2014-01-07 22:45:00,
2014-01-07 17:50:00,20.8,1.9,28.08,SW,233,0.0,0.0,43,0.00,,,0.00,VWS V15.00,2014-01-07 22:50:00,
2014-01-07 17:55:00,20.7,1.7,28.08,SW,233,0.0,0.0,43,0.00,,,0.00,VWS V15.00,2014-01-07 22:55:00,
2014-01-07 18:00:00,20.3,1.4,28.11,SW,233,0.0,0.0,43,0.00,,,0.00,VWS V15.00,2014-01-07 23:00:00,
2014-01-07 18:05:00,20.3,1.4,28.11,SW,233,0.0,0.0,43,0.00,,,0.00,VWS V15.00,2014-01-07 23:05:00,
2014-01-07 18:10:00,19.9,1.1,28.11,SW,233,0.0,0.0,43,0.00,,,0.00,VWS V15.00,2014-01-07 23:10:00,
2014-01-07 18:15:00,19.8,0.9,28.11,SW,233,0.0,0.0,43,0.00,,,0.00,VWS V15.00,2014-01-07 23:15:00,
2014-01-07 18:20:00,19.6,0.7,28.11,SW,233,0.0,0.0,43,0.00,,,0.00,VWS V15.00,2014-01-07 23:20:00,
2014-01-07 18:25:00,19.4,0.6,28.11,SW,233,0.0,0.0,43,0.00,,,0.00,VWS V15.00,2014-01-07 23:25:00,
2014-01-07 18:30:00,19.4,0.6,28.11,SW,233,0.0,0.0,43,0.00,,,0.00,VWS V15.00,2014-01-07 23:30:00,
2014-01-07 18:35:00,18.7,-0.1,28.11,SW,233,0.0,0.0,43,0.00,,,0.00,VWS V15.00,2014-01-07 23:35:00,
2014-01-07 18:40:00,18.5,-0.3,28.11,SW,233,0.0,0.0,43,0.00,,,0.00,VWS V15.00,2014-01-07 23:40:00,
2014-01-07 18:45:00,18.3,-0.4,28.11,SW,233,0.0,0.0,43,0.00,,,0.00,VWS V15.00,2014-01-07 23:45:00,
2014-01-07 18:50:00,17.8,-0.9,28.11,SW,233,0.0,0.0,43,0.00,,,0.00,VWS V15.00,2014-01-07 23:50:00,
2014-01-07 18:55:00,17.6,-0.6,28.11,SW,233,0.0,0.0,44,0.00,,,0.00,VWS V15.00,2014-01-07 23:55:00,
2014-01-07 19:00:00,17.2,-0.9,28.11,SW,233,0.0,0.0,44,0.00,,,0.00,VWS V15.00,2014-01-08 00:00:00,
2014-01-07 19:05:00,16.9,-1.2,28.11,SW,233,0.0,0.0,44,0.00,,,0.00,VWS V15.00,2014-01-08 00:05:00,
2014-01-07 19:10:00,16.7,-1.4,28.11,SW,233,0.0,0.0,44,0.00,,,0.00,VWS V15.00,2014-01-08 00:10:00,
2014-01-07 19:15:00,16.7,-1.4,28.11,SW,233,0.0,0.0,44,0.00,,,0.00,VWS V15.00,2014-01-08 00:15:00,
2014-01-07 19:20:00,16.5,-1.6,28.11,SW,233,0.0,0.0,44,0.00,,,0.00,VWS V15.00,2014-01-08 00:20:00,
2014-01-07 19:25:00,16.2,-1.9,28.11,SW,233,0.0,0.0,44,0.00,,,0.00,VWS V15.00,2014-01-08 00:25:00,
2014-01-07 19:30:00,15.8,-2.2,28.14,SW,233,0.0,0.0,44,0.00,,,0.00,VWS V15.00,2014-01-08 00:30:00,
2014-01-07 19:35:00,15.4,-2.6,28.14,SW,233,0.0,0.0,44,0.00,,,0.00,VWS V15.00,2014-01-08 00:35:00,
2014-01-07 19:40:00,15.1,-2.9,28.14,SW,233,0.0,0.0,44,0.00,,,0.00,VWS V15.00,2014-01-08 00:40:00,
2014-01-07 19:45:00,15.1,-2.9,28.14,SW,233,0.0,0.0,44,0.00,,,0.00,VWS V15.00,2014-01-08 00:45:00,
2014-01-07 19:50:00,15.1,-2.9,28.14,SW,233,0.0,0.0,44,0.00,,,0.00,VWS V15.00,2014-01-08 00:50:00,
2014-01-07 19:55:00,14.9,-3.1,28.14,SW,233,0.0,0.0,44,0.00,,,0.00,VWS V15.00,2014-01-08 00:55:00,
2014-01-07 20:00:00,14.9,-3.1,28.14,SW,233,0.0,0.0,44,0.00,,,0.00,VWS V15.00,2014-01-08 01:00:00,
2014-01-07 20:05:00,14.7,-3.2,28.14,SW,233,0.0,0.0,44,0.00,,,0.00,VWS V15.00,2014-01-08 01:05:00,
2014-01-07 20:10:00,14.5,-3.4,28.14,SW,233,0.0,0.0,44,0.00,,,0.00,VWS V15.00,2014-01-08 01:10:00,
2014-01-07 20:15:00,14.2,-3.7,28.14,SW,233,0.0,0.0,44,0.00,,,0.00,VWS V15.00,2014-01-08 01:15:00,
2014-01-07 20:20:00,14.0,-3.4,28.14,SW,233,0.0,0.0,45,0.00,,,0.00,VWS V15.00,2014-01-08 01:20:00,
2014-01-07 20:25:00,13.8,-3.6,28.14,SW,233,0.0,0.0,45,0.00,,,0.00,VWS V15.00,2014-01-08 01:25:00,
2014-01-07 20:30:00,13.8,-3.6,28.14,SW,233,0.0,0.0,45,0.00,,,0.00,VWS V15.00,2014-01-08 01:30:00,
2014-01-07 20:35:00,13.8,-3.6,28.14,SW,233,0.0,0.0,45,0.00,,,0.00,VWS V15.00,2014-01-08 01:35:00,
2014-01-07 20:40:00,13.8,-3.6,28.14,SW,233,0.0,0.0,45,0.00,,,0.00,VWS V15.00,2014-01-08 01:40:00,
2014-01-07 20:45:00,13.8,-3.6,28.14,SW,233,0.0,0.0,45,0.00,,,0.00,VWS V15.00,2014-01-08 01:45:00,
2014-01-07 20:50:00,13.6,-3.8,28.14,SW,233,0.0,0.0,45,0.00,,,0.00,VWS V15.00,2014-01-08 01:50:00,
2014-01-07 20:55:00,13.5,-3.9,28.14,SW,233,0.0,0.0,45,0.00,,,0.00,VWS V15.00,2014-01-08 01:55:00,
2014-01-07 21:00:00,13.3,-4.1,28.14,SW,233,0.0,0.0,45,0.00,,,0.00,VWS V15.00,2014-01-08 02:00:00,
2014-01-07 21:05:00,13.3,-4.1,28.14,SW,233,0.0,0.0,45,0.00,,,0.00,VWS V15.00,2014-01-08 02:05:00,
2014-01-07 21:10:00,13.1,-4.2,28.14,SW,233,0.0,0.0,45,0.00,,,0.00,VWS V15.00,2014-01-08 02:10:00,
2014-01-07 21:15:00,12.9,-4.4,28.14,SW,233,0.0,0.0,45,0.00,,,0.00,VWS V15.00,2014-01-08 02:15:00,
2014-01-07 21:20:00,13.1,-4.2,28.14,SW,233,0.0,0.0,45,0.00,,,0.00,VWS V15.00,2014-01-08 02:20:00,
2014-01-07 21:25:00,13.1,-4.2,28.14,SW,233,0.0,0.0,45,0.00,,,0.00,VWS V15.00,2014-01-08 02:25:00,
2014-01-07 21:30:00,13.1,-4.2,28.14,SW,233,0.0,0.0,45,0.00,,,0.00,VWS V15.00,2014-01-08 02:30:00,
2014-01-07 21:35:00,13.1,-4.2,28.14,SW,233,0.0,0.0,45,0.00,,,0.00,VWS V15.00,2014-01-08 02:35:00,
2014-01-07 21:40:00,12.9,-4.4,28.14,SW,233,0.0,0.0,45,0.00,,,0.00,VWS V15.00,2014-01-08 02:40:00,
2014-01-07 21:45:00,13.1,-4.2,28.17,SW,233,0.0,0.0,45,0.00,,,0.00,VWS V15.00,2014-01-08 02:45:00,
2014-01-07 21:50:00,13.3,-4.1,28.17,SW,233,0.0,0.0,45,0.00,,,0.00,VWS V15.00,2014-01-08 02:50:00,
2014-01-07 21:55:00,13.3,-4.1,28.17,SW,233,0.0,0.0,45,0.00,,,0.00,VWS V15.00,2014-01-08 02:55:00,
2014-01-07 22:00:00,13.5,-3.9,28.14,SW,233,0.0,0.0,45,0.00,,,0.00,VWS V15.00,2014-01-08 03:00:00,
2014-01-07 22:05:00,13.6,-3.8,28.14,SW,233,0.0,0.0,45,0.00,,,0.00,VWS V15.00,2014-01-08 03:05:00,
2014-01-07 22:10:00,13.8,-3.6,28.14,SW,233,0.0,0.0,45,0.00,,,0.00,VWS V15.00,2014-01-08 03:10:00,
2014-01-07 22:15:00,13.8,-3.6,28.14,SW,233,0.0,0.0,45,0.00,,,0.00,VWS V15.00,2014-01-08 03:15:00,
2014-01-07 22:20:00,13.6,-3.8,28.14,SW,233,0.0,0.0,45,0.00,,,0.00,VWS V15.00,2014-01-08 03:20:00,
2014-01-07 22:25:00,13.5,-3.9,28.14,SW,233,0.0,0.0,45,0.00,,,0.00,VWS V15.00,2014-01-08 03:25:00,
2014-01-07 22:30:00,12.9,-4.4,28.17,SW,233,0.0,0.0,45,0.00,,,0.00,VWS V15.00,2014-01-08 03:30:00,
2014-01-07 22:35:00,12.7,-4.6,28.17,SW,233,0.0,0.0,45,0.00,,,0.00,VWS V15.00,2014-01-08 03:35:00,
2014-01-07 22:40:00,12.7,-4.6,28.17,SW,233,0.0,0.0,45,0.00,,,0.00,VWS V15.00,2014-01-08 03:40:00,
2014-01-07 22:45:00,12.6,-4.7,28.17,SW,233,0.0,0.0,45,0.00,,,0.00,VWS V15.00,2014-01-08 03:45:00,
2014-01-07 22:50:00,12.4,-4.9,28.17,SW,233,0.0,0.0,45,0.00,,,0.00,VWS V15.00,2014-01-08 03:50:00,
2014-01-07 22:55:00,12.6,-4.7,28.17,SW,233,0.0,0.0,45,0.00,,,0.00,VWS V15.00,2014-01-08 03:55:00,
2014-01-07 23:00:00,12.7,-4.6,28.17,SW,233,0.0,0.0,45,0.00,,,0.00,VWS V15.00,2014-01-08 04:00:00,
2014-01-07 23:05:00,12.6,-4.7,28.17,SW,233,0.0,0.0,45,0.00,,,0.00,VWS V15.00,2014-01-08 04:05:00,
2014-01-07 23:10:00,12.6,-4.7,28.17,SW,233,0.0,0.0,45,0.00,,,0.00,VWS V15.00,2014-01-08 04:10:00,
2014-01-07 23:15:00,12.6,-4.7,28.17,SW,233,0.0,0.0,45,0.00,,,0.00,VWS V15.00,2014-01-08 04:15:00,
2014-01-07 23:20:00,12.6,-4.7,28.17,SW,233,0.0,0.0,45,0.00,,,0.00,VWS V15.00,2014-01-08 04:20:00,
2014-01-07 23:25:00,12.6,-4.7,28.17,SW,233,0.0,0.0,45,0.00,,,0.00,VWS V15.00,2014-01-08 04:25:00,
2014-01-07 23:30:00,12.4,-4.9,28.17,SW,233,0.0,0.0,45,0.00,,,0.00,VWS V15.00,2014-01-08 04:30:00,
2014-01-07 23:35:00,12.4,-4.9,28.17,SW,233,0.0,0.0,45,0.00,,,0.00,VWS V15.00,2014-01-08 04:35:00,
2014-01-07 23:40:00,12.2,-5.1,28.17,SW,233,0.0,0.0,45,0.00,,,0.00,VWS V15.00,2014-01-08 04:40:00,
2014-01-07 23:45:00,12.2,-5.1,28.17,SW,233,0.0,0.0,45,0.00,,,0.00,VWS V15.00,2014-01-08 04:45:00,
2014-01-07 23:50:00,12.2,-5.1,28.17,SW,233,0.0,0.0,45,0.00,,,0.00,VWS V15.00,2014-01-08 04:50:00,
2014-01-07 23:55:00,12.2,-5.1,28.17,SW,233,0.0,0.0,45,0.00,,,0.00,VWS V15.00,2014-01-08 04:55:00,